Location: Lafig�re
(44.4503°N, 4.0357°E)
Time: 06:29:51
(UTC+00:00)

Cosmos 1125 Rocket - Pass Details

Date: 19 January 2021
Orbit: 756 x 781 km, 74.0° (Epoch: 04 March)

Event Time Altitude Azimuth Distance (km) Brightness Sun altitude
Rises 06:30:03 0° 341° (NNW) 3,262 6.4 -8.0°
Reaches altitude 10° 06:32:28 10° 345° (NNW) 2,334 5.7 -7.6°
Maximum altitude 06:37:44 63° 67° (ENE) 867 4.0 -6.7°
Drops below altitude 10° 06:42:59 10° 148° (SSE) 2,327 7.0 -5.9°
Sets 06:45:24 0° 152° (SSE) 3,252 7.7 -5.5°
